| time (UTC) | temp F | wind direction | speed knots | gust knots | rain 1hr in | rain 24hr in | rain mn in | humidity % | barometer mb |
| 20260504081823 | 42 | 277 | 3.5 | 7.0 | 0.01 | 0.01 | 0.01 | 93 | 1005.3 |
| 20260504081318 | 42 | 250 | 2.6 | 6.1 | 0.01 | 0.01 | 0.01 | 93 | 1005.3 |
| 20260504080811 | 42 | 259 | 3.5 | 6.1 | 0.01 | 0.01 | 0.01 | 93 | 1005.2 |
| 20260504080301 | 42 | 249 | 3.5 | 6.1 | 0.01 | 0.01 | 0.01 | 93 | 1005.2 |
| 20260504070142 | 42 | 231 | 4.3 | 12.2 | 0.00 | 0.00 | 0.00 | 92 | 1005.2 |
| 20260504060140 | 41 | 246 | 6.1 | 15.6 | 0.00 | 0.00 | 0.00 | 90 | 1005.5 |
| 20260504050636 | 39 | 268 | 2.6 | 5.2 | 0.00 | 0.00 | 0.00 | 91 | 1005.5 |
| 20260504050136 | 39 | 240 | 2.6 | 5.2 | 0.00 | 0.00 | 0.00 | 91 | 1005.6 |
| 20260504045636 | 39 | 240 | 1.7 | 5.2 | 0.00 | 0.00 | 0.00 | 91 | 1005.6 |
| 20260504045136 | 39 | 234 | 1.7 | 3.5 | 0.00 | 0.00 | 0.00 | 91 | 1005.7 |
| 20260504044636 | 39 | 248 | 1.7 | 6.1 | 0.00 | 0.00 | 0.00 | 91 | 1005.7 |
| 20260504044357 | 39 | 248 | 1.7 | 6.1 | 0.00 | 0.00 | 0.00 | 90 | 1005.8 |
| 20260504043859 | 39 | 225 | 1.7 | 3.5 | 0.00 | 0.00 | 0.00 | 90 | 1005.8 |
| 20260504043135 | 39 | 221 | 1.7 | 4.3 | 0.00 | 0.00 | 0.00 | 89 | 1005.9 |
| 20260504042633 | 40 | 221 | 1.7 | 6.1 | 0.00 | 0.00 | 0.00 | 88 | 1005.9 |
| 20260504042354 | 40 | 246 | 1.7 | 6.1 | 0.00 | 0.00 | 0.00 | 88 | 1005.9 |
| 20260504041634 | 40 | 249 | 2.6 | 7.0 | 0.00 | 0.00 | 0.00 | 87 | 1006.0 |
| 20260504041133 | 40 | 238 | 3.5 | 7.0 | 0.00 | 0.00 | 0.00 | 86 | 1006.1 |
| 20260504040135 | 40 | 242 | 4.3 | 8.7 | 0.00 | 0.00 | 0.00 | 84 | 1006.1 |
| 20260504035636 | 40 | 240 | 4.3 | 9.6 | 0.00 | 0.00 | 0.00 | 83 | 1006.0 |
| 20260504035133 | 40 | 255 | 4.3 | 11.3 | 0.00 | 0.00 | 0.00 | 82 | 1006.1 |
| 20260504034633 | 41 | 238 | 5.2 | 11.3 | 0.00 | 0.00 | 0.00 | 80 | 1006.1 |
| 20260504034350 | 41 | 267 | 4.3 | 10.4 | 0.00 | 0.00 | 0.00 | 79 | 1006.1 |
| 20260504033617 | 41 | 271 | 4.3 | 10.4 | 0.00 | 0.00 | 0.00 | 78 | 1006.1 |
| 20260504033331 | 41 | 224 | 5.2 | 9.6 | 0.00 | 0.00 | 0.00 | 77 | 1006.2 |
| 20260504032601 | 41 | 251 | 5.2 | 10.4 | 0.00 | 0.00 | 0.00 | 76 | 1006.1 |
| 20260504032055 | 41 | 229 | 4.3 | 10.4 | 0.00 | 0.00 | 0.00 | 75 | 1006.1 |
| 20260504031554 | 41 | 225 | 5.2 | 11.3 | 0.00 | 0.00 | 0.00 | 74 | 1006.1 |
| 20260504031053 | 41 | 303 | 6.1 | 11.3 | 0.00 | 0.00 | 0.00 | 74 | 1006.1 |
| 20260504030553 | 41 | 249 | 7.8 | 11.3 | 0.00 | 0.00 | 0.00 | 72 | 1006.4 |
| 20260504030315 | 42 | 224 | 7.8 | 15.6 | 0.00 | 0.00 | 0.00 | 71 | 1006.4 |
| 20260504025550 | 41 | 199 | 6.1 | 15.6 | 0.00 | 0.00 | 0.00 | 68 | 1006.2 |
| 20260504025050 | 41 | 209 | 5.2 | 11.3 | 0.00 | 0.00 | 0.00 | 67 | 1006.2 |
| 20260504024550 | 41 | 250 | 5.2 | 11.3 | 0.00 | 0.00 | 0.00 | 66 | 1006.2 |
| 20260504024050 | 41 | 236 | 5.2 | 10.4 | 0.00 | 0.00 | 0.00 | 66 | 1006.2 |
| 20260504023550 | 40 | 244 | 5.2 | 12.2 | 0.00 | 0.00 | 0.00 | 66 | 1006.4 |
| 20260504023050 | 39 | 288 | 5.2 | 12.2 | 0.00 | 0.00 | 0.00 | 65 | 1006.4 |
| 20260504022809 | 39 | 269 | 3.5 | 9.6 | 0.00 | 0.00 | 0.00 | 64 | 1006.4 |
| 20260504022045 | 39 | 240 | 3.5 | 6.1 | 0.00 | 0.00 | 0.00 | 64 | 1006.4 |
| 20260504021545 | 39 | 254 | 2.6 | 7.0 | 0.00 | 0.00 | 0.00 | 63 | 1006.2 |
| 20260504021045 | 38 | 257 | 3.5 | 7.0 | 0.00 | 0.00 | 0.00 | 63 | 1006.2 |
| 20260504020546 | 38 | 250 | 3.5 | 6.1 | 0.00 | 0.00 | 0.00 | 63 | 1006.2 |
| 20260504020046 | 39 | 271 | 3.5 | 7.0 | 0.00 | 0.00 | 0.00 | 62 | 1006.2 |
| 20260504015546 | 39 | 257 | 3.5 | 7.0 | 0.00 | 0.00 | 0.00 | 61 | 1006.4 |
| 20260504015046 | 38 | 252 | 3.5 | 8.7 | 0.00 | 0.00 | 0.00 | 62 | 1006.2 |
| 20260504014542 | 38 | 284 | 3.5 | 8.7 | 0.00 | 0.00 | 0.00 | 65 | 1006.2 |
| 20260504014042 | 38 | 244 | 2.6 | 7.8 | 0.00 | 0.00 | 0.00 | 62 | 1006.2 |
| 20260504013541 | 38 | 261 | 2.6 | 6.1 | 0.00 | 0.00 | 0.00 | 60 | 1006.4 |
| 20260504013042 | 38 | 273 | 1.7 | 6.1 | 0.00 | 0.00 | 0.00 | 60 | 1006.4 |
| 20260504012808 | 37 | 262 | 1.7 | 6.1 | 0.00 | 0.00 | 0.00 | 60 | 1006.4 |
| 20260504012041 | 37 | 259 | 2.6 | 6.1 | 0.00 | 0.00 | 0.00 | 59 | 1006.2 |
| 20260504011542 | 37 | 254 | 1.7 | 6.1 | 0.00 | 0.00 | 0.00 | 60 | 1006.4 |
| 20260504011042 | 37 | 269 | 1.7 | 6.1 | 0.00 | 0.00 | 0.00 | 60 | 1006.4 |
| 20260504010538 | 37 | 252 | 1.7 | 3.5 | 0.00 | 0.00 | 0.00 | 60 | 1006.4 |
| 20260504010038 | 37 | 252 | 1.7 | 3.5 | 0.00 | 0.00 | 0.00 | 60 | 1006.2 |
| 20260504005537 | 38 | 252 | 1.7 | 5.2 | 0.00 | 0.00 | 0.00 | 59 | 1006.1 |
| 20260504005037 | 38 | 250 | 1.7 | 7.0 | 0.00 | 0.00 | 0.00 | 57 | 1006.2 |
| 20260504004538 | 39 | 281 | 1.7 | 7.0 | 0.00 | 0.00 | 0.00 | 55 | 1006.1 |
| 20260504004300 | 39 | 295 | 2.6 | 5.2 | 0.00 | 0.00 | 0.00 | 53 | 1006.2 |
| 20260504003537 | 39 | 259 | 2.6 | 6.1 | 0.00 | 0.00 | 0.00 | 55 | 1006.2 |
| 20260504003304 | 39 | 286 | 2.6 | 7.8 | 0.00 | 0.00 | 0.00 | 54 | 1006.2 |
| 20260504002535 | 39 | 261 | 3.5 | 7.8 | 0.00 | 0.00 | 0.00 | 55 | 1006.1 |
| 20260504002033 | 39 | 253 | 3.5 | 7.8 | 0.00 | 0.00 | 0.00 | 55 | 1006.1 |
| 20260504001028 | 41 | 255 | 2.6 | 7.8 | 0.00 | 0.00 | 0.00 | 53 | 1005.9 |
| 20260504000738 | 41 | 268 | 2.6 | 7.8 | 0.00 | 0.00 | 0.00 | 50 | 1006.0 |
| 20260504000012 | 42 | 312 | 3.5 | 11.3 | 0.00 | 0.00 | 0.00 | 49 | 1005.9 |
| 20260503235506 | 43 | 253 | 5.2 | 13.9 | 0.00 | 0.00 | 0.00 | 46 | 1005.9 |
| 20260503234955 | 43 | 242 | 5.2 | 13.9 | 0.00 | 0.00 | 0.00 | 46 | 1005.9 |
| 20260503234451 | 43 | 296 | 4.3 | 10.4 | 0.00 | 0.00 | 0.00 | 45 | 1005.8 |
| 20260503233942 | 43 | 252 | 4.3 | 9.6 | 0.00 | 0.00 | 0.00 | 44 | 1005.8 |
| 20260503233431 | 44 | 238 | 5.2 | 12.2 | 0.00 | 0.00 | 0.00 | 42 | 1005.8 |
| 20260503232925 | 43 | 273 | 3.5 | 12.2 | 0.00 | 0.00 | 0.00 | 44 | 1005.7 |
| 20260503232419 | 43 | 309 | 2.6 | 13.0 | 0.00 | 0.00 | 0.00 | 46 | 1005.7 |
| 20260503231909 | 44 | 248 | 4.3 | 13.0 | 0.00 | 0.00 | 0.00 | 43 | 1005.6 |
| 20260503231403 | 44 | 231 | 4.3 | 14.8 | 0.00 | 0.00 | 0.00 | 44 | 1005.5 |
| 20260503230856 | 45 | 277 | 3.5 | 14.8 | 0.00 | 0.00 | 0.00 | 43 | 1005.5 |
| 20260503230347 | 45 | 246 | 3.5 | 9.6 | 0.00 | 0.00 | 0.00 | 42 | 1005.5 |
| 20260503225848 | 46 | 259 | 3.5 | 7.8 | 0.00 | 0.00 | 0.00 | 42 | 1005.4 |
| 20260503225347 | 46 | 282 | 4.3 | 11.3 | 0.00 | 0.00 | 0.00 | 40 | 1005.4 |
| 20260503224847 | 46 | 265 | 6.1 | 13.0 | 0.00 | 0.00 | 0.00 | 40 | 1005.3 |
| 20260503224347 | 47 | 225 | 5.2 | 13.0 | 0.00 | 0.00 | 0.00 | 41 | 1005.3 |
| 20260503223847 | 47 | 302 | 4.3 | 12.2 | 0.00 | 0.00 | 0.00 | 40 | 1005.3 |
| 20260503223347 | 47 | 275 | 5.2 | 13.0 | 0.00 | 0.00 | 0.00 | 43 | 1005.2 |
| 20260503223110 | 46 | 284 | 6.1 | 13.9 | 0.00 | 0.00 | 0.00 | 42 | 1005.2 |
| 20260503222347 | 46 | 243 | 7.8 | 14.8 | 0.00 | 0.00 | 0.00 | 41 | 1005.2 |
| 20260503221847 | 47 | 241 | 6.1 | 14.8 | 0.00 | 0.00 | 0.00 | 38 | 1005.2 |
| 20260503221347 | 47 | 241 | 4.3 | 13.9 | 0.00 | 0.00 | 0.00 | 40 | 1005.2 |
| 20260503220848 | 47 | 306 | 4.3 | 13.0 | 0.00 | 0.00 | 0.00 | 39 | 1005.2 |
| 20260503220347 | 47 | 232 | 5.2 | 14.8 | 0.00 | 0.00 | 0.00 | 38 | 1005.1 |
| 20260503215847 | 48 | 233 | 4.3 | 14.8 | 0.00 | 0.00 | 0.00 | 39 | 1005.2 |
| 20260503215342 | 48 | 292 | 4.3 | 11.3 | 0.00 | 0.00 | 0.00 | 40 | 1005.2 |
| 20260503215051 | 48 | 246 | 6.1 | 13.9 | 0.00 | 0.00 | 0.00 | 39 | 1005.1 |
| 20260503214325 | 48 | 246 | 5.2 | 13.9 | 0.00 | 0.00 | 0.00 | 42 | 1005.1 |
| 20260503213820 | 48 | 338 | 5.2 | 11.3 | 0.00 | 0.00 | 0.00 | 40 | 1005.1 |
| 20260503213310 | 47 | 302 | 5.2 | 11.3 | 0.00 | 0.00 | 0.00 | 43 | 1005.2 |
| 20260503212804 | 47 | 322 | 5.2 | 13.0 | 0.00 | 0.00 | 0.00 | 41 | 1005.2 |
| 20260503212258 | 47 | 274 | 5.2 | 13.0 | 0.00 | 0.00 | 0.00 | 40 | 1005.2 |
| 20260503211752 | 47 | 259 | 5.2 | 11.3 | 0.00 | 0.00 | 0.00 | 43 | 1005.1 |
| 20260503211246 | 46 | 280 | 6.1 | 11.3 | 0.00 | 0.00 | 0.00 | 44 | 1005.3 |
| 20260503210740 | 47 | 257 | 6.1 | 13.9 | 0.00 | 0.00 | 0.00 | 41 | 1005.2 |
| 20260503210230 | 48 | 290 | 6.1 | 13.9 | 0.00 | 0.00 | 0.00 | 42 | 1005.2 |
| 20260503205946 | 47 | 251 | 6.1 | 13.0 | 0.00 | 0.00 | 0.00 | 43 | 1005.2 |
| 20260503205438 | 47 | 219 | 7.0 | 13.9 | 0.00 | 0.00 | 0.00 | 42 | 1005.2 |
| 20260503204708 | 47 | 242 | 7.0 | 15.6 | 0.00 | 0.00 | 0.00 | 41 | 1005.3 |
| 20260503204428 | 47 | 236 | 7.8 | 15.6 | 0.00 | 0.00 | 0.00 | 42 | 1005.2 |
| 20260503203656 | 47 | 338 | 7.8 | 15.6 | 0.00 | 0.00 | 0.00 | 42 | 1005.2 |
| 20260503203146 | 47 | 217 | 6.1 | 13.9 | 0.00 | 0.00 | 0.00 | 45 | 1005.4 |
| 20260503202641 | 47 | 190 | 4.3 | 12.2 | 0.00 | 0.00 | 0.00 | 43 | 1005.3 |
| 20260503202135 | 46 | 331 | 5.2 | 14.8 | 0.00 | 0.00 | 0.00 | 45 | 1005.3 |
| 20260503201624 | 46 | 330 | 6.1 | 14.8 | 0.00 | 0.00 | 0.00 | 44 | 1005.4 |
| 20260503201118 | 46 | 311 | 6.1 | 13.0 | 0.00 | 0.00 | 0.00 | 44 | 1005.4 |
| 20260503200831 | 46 | 15 | 6.1 | 13.9 | 0.00 | 0.00 | 0.00 | 45 | 1005.4 |
| 20260503195556 | 46 | 284 | 6.1 | 13.9 | 0.00 | 0.00 | 0.00 | 47 | 1005.5 |
| 20260503195050 | 46 | 258 | 5.2 | 13.9 | 0.00 | 0.00 | 0.00 | 46 | 1005.5 |
| 20260503194540 | 46 | 333 | 5.2 | 12.2 | 0.00 | 0.00 | 0.00 | 44 | 1005.6 |
| 20260503194034 | 46 | 318 | 4.3 | 12.2 | 0.00 | 0.00 | 0.00 | 46 | 1005.6 |
| 20260503193528 | 46 | 326 | 5.2 | 13.0 | 0.00 | 0.00 | 0.00 | 47 | 1005.7 |
| 20260503193018 | 45 | 259 | 7.0 | 16.5 | 0.00 | 0.00 | 0.00 | 46 | 1005.8 |
| 20260503192512 | 45 | 270 | 6.1 | 16.5 | 0.00 | 0.00 | 0.00 | 46 | 1005.8 |
| 20260503192006 | 45 | 270 | 5.2 | 12.2 | 0.00 | 0.00 | 0.00 | 46 | 1005.8 |
| 20260503191456 | 46 | 228 | 6.1 | 15.6 | 0.00 | 0.00 | 0.00 | 45 | 1005.9 |
| 20260503190949 | 45 | 265 | 7.0 | 15.6 | 0.00 | 0.00 | 0.00 | 46 | 1005.9 |
| 20260503190444 | 45 | 248 | 7.0 | 13.9 | 0.00 | 0.00 | 0.00 | 46 | 1005.9 |
| 20260503185933 | 45 | 251 | 6.1 | 13.9 | 0.00 | 0.00 | 0.00 | 45 | 1006.0 |
| 20260503185428 | 47 | 248 | 5.2 | 14.8 | 0.00 | 0.00 | 0.00 | 47 | 1006.0 |
| 20260503184412 | 45 | 259 | 7.8 | 18.2 | 0.00 | 0.00 | 0.00 | 48 | 1006.1 |
| 20260503184123 | 45 | 273 | 7.8 | 22.6 | 0.00 | 0.00 | 0.00 | 50 | 1006.1 |
| 20260503183400 | 44 | 284 | 7.0 | 22.6 | 0.00 | 0.00 | 0.00 | 47 | 1006.1 |
| 20260503182850 | 45 | 290 | 5.2 | 20.0 | 0.00 | 0.00 | 0.00 | 49 | 1005.9 |
| 20260503182344 | 46 | 251 | 7.0 | 20.9 | 0.00 | 0.00 | 0.00 | 46 | 1006.0 |
| 20260503181838 | 45 | 229 | 7.0 | 20.9 | 0.00 | 0.00 | 0.00 | 46 | 1006.2 |
| 20260503181327 | 47 | 259 | 7.0 | 17.4 | 0.00 | 0.00 | 0.00 | 45 | 1006.1 |
| 20260503180821 | 47 | 267 | 7.8 | 17.4 | 0.00 | 0.00 | 0.00 | 46 | 1006.2 |
| 20260503180315 | 46 | 275 | 8.7 | 18.2 | 0.00 | 0.00 | 0.00 | 47 | 1006.1 |
| 20260503175814 | 46 | 291 | 8.7 | 20.0 | 0.00 | 0.00 | 0.00 | 49 | 1006.1 |
| 20260503175315 | 45 | 213 | 6.1 | 20.0 | 0.00 | 0.00 | 0.00 | 49 | 1006.1 |
| 20260503174815 | 46 | 268 | 6.1 | 19.1 | 0.00 | 0.00 | 0.00 | 50 | 1006.1 |
| 20260503174314 | 46 | 329 | 7.0 | 19.1 | 0.00 | 0.00 | 0.00 | 49 | 1006.2 |
| 20260503173813 | 45 | 323 | 7.0 | 13.9 | 0.00 | 0.00 | 0.00 | 51 | 1006.2 |
| 20260503172813 | 44 | 250 | 5.2 | 13.9 | 0.00 | 0.00 | 0.00 | 52 | 1006.5 |
| 20260503172316 | 43 | 242 | 4.3 | 13.9 | 0.00 | 0.00 | 0.00 | 52 | 1006.4 |
| 20260503171813 | 44 | 259 | 5.2 | 12.2 | 0.00 | 0.00 | 0.00 | 51 | 1006.4 |
| 20260503171313 | 44 | 303 | 5.2 | 11.3 | 0.00 | 0.00 | 0.00 | 48 | 1006.2 |
| 20260503170812 | 45 | 275 | 5.2 | 11.3 | 0.00 | 0.00 | 0.00 | 55 | 1006.4 |
| 20260503170313 | 44 | 217 | 4.3 | 11.3 | 0.00 | 0.00 | 0.00 | 55 | 1006.5 |
| 20260503150809 | 40 | 275 | 5.2 | 11.3 | 0.00 | 0.00 | 0.00 | 63 | 1007.4 |
| 20260503150308 | 40 | 227 | 5.2 | 11.3 | 0.00 | 0.00 | 0.00 | 62 | 1007.4 |
| 20260503131250 | 38 | 260 | 2.6 | 9.6 | 0.00 | 0.00 | 0.00 | 78 | 1007.8 |
| 20260503130749 | 38 | 265 | 3.5 | 9.6 | 0.00 | 0.00 | 0.00 | 80 | 1007.8 |
| 20260503130515 | 38 | 281 | 3.5 | 10.4 | 0.00 | 0.00 | 0.00 | 80 | 1007.9 |
| 20260503110202 | 35 | 254 | 5.2 | 13.0 | 0.00 | 0.00 | 0.00 | 85 | 1007.2 |
| 20260503100139 | 34 | 277 | 5.2 | 13.9 | 0.00 | 0.00 | 0.00 | 89 | 1006.9 |